Regional Weather Roundup
Issued by NWS

Home | Current Version | Previous Version | Graphics & Text | Print | Product List | Glossary On
Versions: 1 2 3 4 5 6 7 8 9 10 11 12 13 14 15 16 17 18 19 20 21 22 23 24 25 26 27 28 29 30 31 32 33 34 35 36 37 38 39 40 41 42 43 44 45 46 47 48 49 50
000
ASUS43 KMPX 302310
RWRMN
WEATHER ROUNDUP FOR MINNESOTA
NATIONAL WEATHER SERVICE TWIN CITIES/CHANHASSEN MN
600 PM CDT SAT APR 30 2016


NOTE: "FAIR" INDICATES FEW OR NO CLOUDS BELOW 12,000 FEET WITH NO
SIGNIFICANT WEATHER AND/OR OBSTRUCTIONS TO VISIBILITY. N/A MEANS
CURRENT SKY AND/OR WEATHER CONDITIONS ARE NOT AVAILABLE.

MNZ060>063-068>070-010000-
   Twin Cities Metro

CITY           SKY/WX    TMP DP  RH WIND       PRES   REMARKS
TWIN CITIES    CLOUDY    57  34  41 E14       30.03S
ST PAUL        CLOUDY    57  35  43 E8        30.04S
CRYSTAL        CLOUDY    57  35  43 NE16G25   30.04R
BLAINE         CLOUDY    57  36  44 NE17G24   30.04S
EDEN PRAIRIE   CLOUDY    57  33  40 E12       30.02R
SOUTH ST PAUL  CLOUDY    57  33  39 E9        30.03S
LAKE ELMO      CLOUDY    55  36  47 NE14G20   30.04S
$$
MNZ001>005-007-008-013>017-022>024-027-028-010000-
   Northwest Minnesota

CITY           SKY/WX    TMP DP  RH WIND       PRES   REMARKS
BEMIDJI        PTSUNNY   57  29  34 E12G21    30.17S
HALLOCK        SUNNY     63  19  19 NE17      30.22R
ROSEAU         SUNNY     57  32  38 NE21G26   30.24R
WARROAD        SUNNY     55  30  38 NE10G16   30.25S
THIEF RVR FALL SUNNY     57  27  30 N20       30.22S
CROOKSTON      SUNNY     59  28  31 NE15G23   30.21R
FOSSTON        SUNNY     57  28  33 NE14G23   30.19R
DETROIT LAKES  CLOUDY    59  28  31 E13G20    30.14S
MOORHEAD       CLOUDY    63  27  25 E16       30.14R
PARK RAPIDS    PTSUNNY   57  27  31 NE12      30.13S
MAHNOMEN       FAIR      58  28  30 NE15G23   30.14S
$$
MNZ006-009>011-018-025>026-010000-
   North Central Minnesota

CITY           SKY/WX    TMP DP  RH WIND       PRES   REMARKS
BAUDETTE       SUNNY     57  25  29 NE13      30.22R
FLAG ISLAND    SUNNY     54  27  35 NE15      30.25R
INTL FALLS     SUNNY     57  25  29 E14       30.22R
WASKISH        SUNNY     57  30  35 NE15G23   30.21R
BIG FORK       MOSUNNY   57  27  30 E12       30.20R
LONGVILLE      PTSUNNY   57  27  30 NE5       30.14S
GRAND RAPIDS   CLOUDY    54  28  37 E10       30.19R
CRANE LAKE     SUNNY     55  25  30 E5        30.23R
ORR            SUNNY     57  19  23 NE3       30.19R
COOK           MOSUNNY   54  27  35 E5        30.21S
WALKER         FAIR      56  29  36 E9        30.15S
$$
MNZ012-019>021-037-010000-
   Northeast Minnesota

CITY           SKY/WX    TMP DP  RH WIND       PRES   REMARKS
DULUTH         MOSUNNY   46  26  45 E21G26    30.21S
ELY            MOSUNNY   48  27  43 SE5       30.22R
HIBBING        CLOUDY    51  29  42 E13       30.20R
EVELETH        MOSUNNY   52  30  43 SE10G17   30.22R
DULUTH HARBOR  MOSUNNY   41  36  81 NE24      30.23S
TWO HARBORS    CLOUDY    46  34  61 E16G23    30.22F
SILVER BAY     SUNNY     45  30  57 NE9       30.24S
GRAND MARAIS     N/A     43  30  60 E9        30.27R
G MARAIS ARPRT MOSUNNY   43  25  49 SE6       30.24S
$$
MNZ029>031-032-039>041-046>048-054>057-064-010000-
   West Central Minnesota

CITY           SKY/WX    TMP DP  RH WIND       PRES   REMARKS
FERGUS FALLS   CLOUDY    59  30  33 E10G17    30.08R
WHEATON        CLOUDY    61  34  36 NE17G23   30.10R
MORRIS         CLOUDY    57  34  41 E18G26    30.07R
ALEXANDRIA     MOSUNNY   55  31  39 E20G29    30.10R
ELBOW LAKE     FAIR      57  32  38 NE15G21   30.09S
WADENA         MOSUNNY   55  32  41 E10G20    30.11R
GLENWOOD       MOSUNNY   54  34  47 NE21      30.09R
APPLETON       CLOUDY    57  34  41 E15G24    30.05R
BENSON         CLOUDY    57  32  38 E15G23    30.06R
ORTONVILLE     CLOUDY    55  36  47 E16G22    30.07R
MADISON        CLOUDY    55  34  44 E17       30.05R
WILLMAR        PTSUNNY   57  36  44 NE18G25   30.06R
$$
MNZ033>034-036-042>043-049>051-058-059-010000-
   Central Minnesota

CITY           SKY/WX    TMP DP  RH WIND       PRES   REMARKS
ST CLOUD       CLOUDY    55  33  43 NE22G32   30.08R
SAUK CENTRE    FAIR      53  33  47 NE12G26   30.10R
PAYNESVILLE    CLOUDY    55  34  45 NE18      30.07R
AITKIN         PTSUNNY   55  25  30 E14G22    30.15S
PINE RIVER     CLOUDY    55  34  44 E9G17     30.17R
BRAINERD       PTSUNNY   52  28  39 NE10G23   30.14F
STAPLES        MOSUNNY   54  27  35 E10G17    30.13R
LONG PRAIRIE   FAIR      52  32  46 NE20G28   30.11R
LITTLE FALLS   CLOUDY    52  28  40 E9G21     30.12R
LITCHFIELD     CLOUDY    57  36  44 NE17G28   30.05R
BUFFALO        CLOUDY    55  34  44 NE16G23   30.06R
MAPLE LAKE     CLOUDY    56  37  47 NE18G24   30.06R
HUTCHINSON     SUNNY     56  38  52 E13       30.04R
$$
MNZ037-044-045-052-053-010000-
   East Central Minnesota

CITY           SKY/WX    TMP DP  RH WIND       PRES   REMARKS
PRINCETON        N/A     57  32  38 NE20G26   30.09R
MORA           PTSUNNY   52  30  43 NE8G20    30.14R
CAMBRIDGE      CLOUDY    55  37  50 NE9G20    30.08R
RUSH CITY      PTSUNNY   53  31  42 NE15G22   30.11R
MOOSE LAKE     PTSUNNY   50  27  40 NE12G25   30.16R
HINCKLEY       FAIR      54  32  43 NE12G22   30.13R
CLOQUET        CLOUDY    46  23  39 E20G28    30.19F
MCGREGOR       MOSUNNY   50  32  50 E18       30.18R
$$
MNZ071>073-080-081-089-090-097-098-010000-
   Southwest Minnesota

CITY           SKY/WX    TMP DP  RH WIND       PRES   REMARKS
MONTEVIDEO     CLOUDY    55  36  47 E16G25    30.06R
GRANITE FALLS  CLOUDY    56  36  46 E9G16     30.05R
CANBY          CLOUDY    56  37  48 NE14G22   30.05R
MARSHALL       CLOUDY    49  40  71 SE15      30.03R
REDWOOD FALLS  CLOUDY    54  35  48 E7        30.02R
OLIVIA         PTSUNNY   54  34  47 E15G21    30.03R
PIPESTONE      CLOUDY    45  39  81 E18G26    29.98R
WINDOM         HVY RAIN  45  41  87 E21G26    30.00R
WORTHINGTON    LGT RAIN  42  39  89 E28G33    29.97R
JACKSON        LGT RAIN  43  41  93 NE30G36   29.96S
TRACY          LGT RAIN  47  41  81 E15G21    30.02R
SLAYTON        LGT RAIN  44  41  89 E20G30    29.99R
$$
MNZ065>067-074>077-082>085-091>093-010000-
   South Central Minnesota

CITY           SKY/WX    TMP DP  RH WIND       PRES   REMARKS
MANKATO        CLOUDY    46  39  76 E12       30.03R
NEW ULM        LGT RAIN  48  43  81 E9        30.03R
ST JAMES       LGT RAIN  39  37  93 E15       30.03R
FAIRMONT       CLOUDY    43  34  70 NE22G29   29.97F
GLENCOE        CLOUDY    56  40  56 E8        30.03R
FARIBAULT      CLOUDY    52  39  62 E8        30.03R
OWATONNA       LGT RAIN  46  39  76 E12G21    30.02R
WASECA         LGT RAIN  45  39  81 E16       30.03S
ALBERT LEA     CLOUDY    45  45 100 NE15G22   29.98S
$$
MNZ078>079-086>088-094>096-010000-
   Southeast Minnesota

CITY           SKY/WX    TMP DP  RH WIND       PRES   REMARKS
ROCHESTER      LGT RAIN  44  39  82 E22G31    30.00F
RED WING       CLOUDY    55  32  41 E9        30.02S
STANTON        CLOUDY    54  37  52 E10G18    30.00S
DODGE CENTER   RAIN      43  41  93 E17       30.01R
WINONA         RAIN      48  41  76 E12G18    30.06S
AUSTIN         LGT RAIN  45  39  81 NE17G26   29.98S
PRESTON        LGT RAIN  43  39  88 NE17      30.01R
$$
ABBREVIATIONS USED IN REMARKS
   TC - TEMPERATURES IN CELSIUS
  WCI - WIND CHILL INDEX
   HX - HEAT INDEX
  VSB - VISIBILITY
$$




USA.gov is the U.S. government's official web portal to all federal, state and local government web resources and services.